| time (UTC) | temp F | wind direction | speed MPH | gust MPH | rain 1hr in | rain 24hr in | rain mn in | humidity % | barometer mb |
| 20260506004547 | 68 | 184 | 5.0 | 10.0 | 0.00 | 0.36 | 0.36 | 50 | 1012.3 |
| 20260506003051 | 68 | 184 | 6.0 | 14.0 | 0.00 | 0.36 | 0.36 | 49 | 1012.3 |
| 20260506001550 | 68 | 120 | 2.0 | 11.0 | 0.00 | 0.36 | 0.36 | 43 | 1012.3 |
| 20260506000051 | 68 | 96 | 3.0 | 10.0 | 0.00 | 0.36 | 0.36 | 49 | 1012.4 |
| 20260505234539 | 68 | 168 | 7.0 | 14.0 | 0.00 | 0.36 | 0.36 | 44 | 1012.5 |
| 20260505233046 | 68 | 105 | 3.0 | 7.0 | 0.00 | 0.36 | 0.36 | 49 | 1012.6 |
| 20260505231545 | 67 | 98 | 3.0 | 8.0 | 0.00 | 0.36 | 0.36 | 50 | 1012.8 |
| 20260505230044 | 66 | 62 | 3.0 | 8.0 | 0.00 | 0.36 | 0.36 | 50 | 1012.8 |
| 20260505224540 | 66 | 92 | 3.0 | 8.0 | 0.00 | 0.36 | 0.36 | 53 | 1013.1 |
| 20260505223048 | 66 | 97 | 6.0 | 12.0 | 0.00 | 0.36 | 0.36 | 53 | 1013.3 |
| 20260505221600 | 66 | 143 | 3.0 | 8.0 | 0.00 | 0.36 | 0.36 | 54 | 1013.5 |
| 20260505220056 | 66 | 141 | 2.0 | 10.0 | 0.00 | 0.36 | 0.36 | 56 | 1013.6 |
| 20260505214548 | 65 | 190 | 3.0 | 10.0 | 0.00 | 0.36 | 0.36 | 58 | 1013.7 |
| 20260505213040 | 64 | 198 | 7.0 | 13.0 | 0.00 | 0.36 | 0.36 | 56 | 1013.7 |
| 20260505211544 | 63 | 324 | 4.0 | 14.0 | 0.00 | 0.36 | 0.36 | 58 | 1014.0 |
| 20260505210051 | 63 | 182 | 7.0 | 11.0 | 0.00 | 0.36 | 0.36 | 62 | 1014.1 |
| 20260505204554 | 62 | 181 | 6.0 | 11.0 | 0.00 | 0.36 | 0.36 | 65 | 1014.3 |
| 20260505203041 | 61 | 198 | 5.0 | 12.0 | 0.00 | 0.36 | 0.36 | 65 | 1014.5 |
| 20260505201551 | 60 | 160 | 4.0 | 10.0 | 0.00 | 0.36 | 0.36 | 62 | 1014.4 |
| 20260505200048 | 60 | 117 | 0.0 | 8.0 | 0.00 | 0.36 | 0.36 | 68 | 1014.6 |
| 20260505194559 | 60 | 210 | 0.0 | 7.0 | 0.00 | 0.36 | 0.36 | 65 | 1014.7 |
| 20260505193046 | 60 | 234 | 3.0 | 8.0 | 0.00 | 0.36 | 0.36 | 67 | 1014.7 |
| 20260505191548 | 58 | 268 | 3.0 | 7.0 | 0.00 | 0.36 | 0.36 | 70 | 1014.7 |
| 20260505190043 | 57 | 211 | 4.0 | 7.0 | 0.00 | 0.36 | 0.36 | 74 | 1014.7 |
| 20260505184539 | 57 | 147 | 2.0 | 8.0 | 0.00 | 0.36 | 0.36 | 78 | 1014.6 |
| 20260505183052 | 56 | 89 | 0.0 | 9.0 | 0.00 | 0.36 | 0.36 | 81 | 1014.7 |
| 20260505181544 | 55 | 115 | 0.0 | 7.0 | 0.00 | 0.36 | 0.36 | 83 | 1014.6 |
| 20260505180048 | 54 | 153 | 4.0 | 6.0 | 0.00 | 0.36 | 0.36 | 80 | 1014.5 |
| 20260505174542 | 53 | 147 | 3.0 | 7.0 | 0.00 | 0.36 | 0.36 | 89 | 1014.3 |
| 20260505173048 | 52 | 141 | 3.0 | 5.0 | 0.00 | 0.36 | 0.36 | 91 | 1014.2 |
| 20260505171551 | 51 | 158 | 2.0 | 7.0 | 0.00 | 0.36 | 0.36 | 92 | 1014.2 |
| 20260505170045 | 51 | 128 | 2.0 | 6.0 | 0.00 | 0.36 | 0.36 | 93 | 1014.2 |
| 20260505164554 | 50 | 132 | 2.0 | 6.0 | 0.00 | 0.36 | 0.36 | 94 | 1014.0 |
| 20260505163048 | 50 | 180 | 3.0 | 7.0 | 0.00 | 0.36 | 0.36 | 94 | 1013.8 |
| 20260505161555 | 50 | 145 | 3.0 | 8.0 | 0.00 | 0.36 | 0.36 | 95 | 1013.7 |
| 20260505153054 | 49 | 130 | 3.0 | 10.0 | 0.00 | 0.36 | 0.36 | 99 | 1013.2 |
| 20260505151541 | 49 | 109 | 3.0 | 7.0 | 0.00 | 0.36 | 0.36 | 99 | 1013.3 |
| 20260505124606 | 48 | 138 | 3.0 | 10.0 | 0.12 | 0.30 | 0.30 | 99 | 1012.0 |
| 20260505123058 | 48 | 115 | 6.0 | 12.0 | 0.09 | 0.27 | 0.27 | 98 | 1011.9 |
| 20260505121549 | 49 | 100 | 2.0 | 5.0 | 0.05 | 0.23 | 0.23 | 98 | 1011.7 |
| 20260505120100 | 49 | 76 | 0.0 | 2.0 | 0.00 | 0.18 | 0.18 | 98 | 1011.2 |
| 20260505114545 | 49 | 0 | 0.0 | 2.0 | 0.01 | 0.18 | 0.18 | 97 | 1011.0 |
| 20260505113054 | 48 | 197 | 2.0 | 6.0 | 0.01 | 0.18 | 0.18 | 97 | 1010.8 |
| 20260505111549 | 49 | 180 | 0.0 | 2.0 | 0.02 | 0.18 | 0.18 | 97 | 1011.1 |
| 20260505101549 | 48 | 230 | 3.0 | 6.0 | 0.04 | 0.16 | 0.16 | 96 | 1011.0 |
| 20260505100050 | 48 | 232 | 5.0 | 13.0 | 0.06 | 0.16 | 0.16 | 96 | 1010.9 |
| 20260505094549 | 48 | 235 | 4.0 | 10.0 | 0.05 | 0.15 | 0.15 | 96 | 1011.0 |
| 20260505093103 | 48 | 245 | 6.0 | 12.0 | 0.04 | 0.13 | 0.13 | 96 | 1011.3 |
| 20260505091550 | 48 | 242 | 6.0 | 11.0 | 0.05 | 0.12 | 0.12 | 96 | 1011.2 |
| 20260505090050 | 49 | 290 | 4.0 | 9.0 | 0.06 | 0.10 | 0.10 | 96 | 1011.3 |
| 20260505084554 | 49 | 211 | 3.0 | 7.0 | 0.09 | 0.10 | 0.10 | 96 | 1010.7 |
| 20260505083054 | 48 | 225 | 6.0 | 11.0 | 0.08 | 0.09 | 0.09 | 95 | 1010.7 |
| 20260505081551 | 49 | 213 | 4.0 | 8.0 | 0.07 | 0.07 | 0.07 | 94 | 1011.5 |
| 20260505080054 | 49 | 239 | 4.0 | 9.0 | 0.04 | 0.04 | 0.04 | 91 | 1011.8 |
| 20260505074551 | 50 | 257 | 1.0 | 5.0 | 0.01 | 0.01 | 0.01 | 87 | 1011.9 |
| 20260505073051 | 51 | 0 | 0.0 | 3.0 | 0.01 | 0.01 | 0.01 | 83 | 1011.9 |
| 20260505071543 | 51 | 175 | 1.0 | 9.0 | 0.00 | 0.00 | 0.00 | 80 | 1011.6 |
| 20260505070045 | 52 | 233 | 7.0 | 13.0 | 0.00 | 0.00 | 0.00 | 77 | 1010.9 |
| 20260505064554 | 52 | 255 | 5.0 | 10.0 | 0.00 | 0.00 | 0.00 | 75 | 1011.0 |
| 20260505063046 | 52 | 201 | 2.0 | 10.0 | 0.00 | 0.00 | 0.00 | 73 | 1011.1 |
| 20260505061543 | 53 | 163 | 4.0 | 11.0 | 0.00 | 0.00 | 0.00 | 72 | 1011.1 |
| 20260505060042 | 52 | 0 | 0.0 | 3.0 | 0.00 | 0.00 | 0.00 | 73 | 1011.1 |
| 20260505054543 | 52 | 191 | 5.0 | 12.0 | 0.00 | 0.00 | 0.00 | 72 | 1010.8 |
| 20260505053105 | 52 | 131 | 1.0 | 7.0 | 0.00 | 0.00 | 0.00 | 75 | 1011.1 |
| 20260505051546 | 53 | 192 | 4.0 | 13.0 | 0.00 | 0.00 | 0.00 | 72 | 1010.9 |
| 20260505041546 | 53 | 249 | 8.0 | 15.0 | 0.00 | 0.00 | 0.00 | 74 | 1010.6 |
| 20260505040050 | 53 | 239 | 8.0 | 16.0 | 0.00 | 0.00 | 0.00 | 77 | 1010.4 |
| 20260505034557 | 53 | 214 | 12.0 | 18.0 | 0.00 | 0.00 | 0.00 | 76 | 1010.3 |
| 20260505033051 | 54 | 213 | 12.0 | 19.0 | 0.00 | 0.00 | 0.00 | 73 | 1010.5 |
| 20260505031541 | 54 | 236 | 7.0 | 18.0 | 0.00 | 0.00 | 0.00 | 73 | 1010.4 |
| 20260505030051 | 54 | 261 | 12.0 | 20.0 | 0.00 | 0.00 | 0.00 | 73 | 1010.2 |
| 20260505024544 | 54 | 247 | 14.0 | 22.0 | 0.00 | 0.00 | 0.00 | 72 | 1010.4 |
| 20260505023048 | 55 | 271 | 11.0 | 20.0 | 0.00 | 0.00 | 0.00 | 71 | 1010.6 |
| 20260505021551 | 55 | 247 | 11.0 | 16.0 | 0.00 | 0.00 | 0.00 | 72 | 1010.3 |
| 20260505020043 | 55 | 253 | 11.0 | 17.0 | 0.00 | 0.00 | 0.00 | 71 | 1010.1 |
| 20260505014549 | 56 | 244 | 8.0 | 17.0 | 0.00 | 0.00 | 0.00 | 70 | 1010.2 |
| 20260505013047 | 56 | 198 | 11.0 | 21.0 | 0.00 | 0.00 | 0.00 | 64 | 1010.1 |
| 20260505011605 | 57 | 215 | 11.0 | 21.0 | 0.00 | 0.00 | 0.00 | 63 | 1009.9 |
| 20260505010049 | 57 | 227 | 17.0 | 24.0 | 0.00 | 0.00 | 0.00 | 63 | 1009.5 |